Regional Weather Roundup
Issued by NWS

Home | Current Version | Previous Version | Graphics & Text | Print | Product List | Glossary On
Versions: 1 2 3 4 5 6 7 8 9 10 11 12 13 14 15 16 17 18 19 20 21 22 23 24 25 26 27 28 29 30 31 32 33 34 35 36 37 38 39 40 41 42 43 44 45 46 47 48 49 50
342
ASUS43 KLOT 241103
RWRIL

ILLINOIS REGIONAL WEATHER ROUNDUP
NATIONAL WEATHER SERVICE CHICAGO/ROMEOVILLE IL
600 AM CDT THU MAY 24 2018

NOTE: "FAIR" INDICATES FEW OR NO CLOUDS BELOW 12,000 FEET WITH NO
SIGNIFICANT WEATHER AND/OR OBSTRUCTIONS TO VISIBILITY.

* THESE STATIONS ARE NOT UNDER NWS QUALITY CONTROL. THEY ALSO MAY NOT
  REPORT WEATHER SUCH AS PRECIPITATION OR FOG.

ILZ001-002-007-009-015-016-024-241200-
NORTHWEST ILLINOIS

CITY           SKY/WX    TMP DP  RH WIND       PRES   REMARKS
MOLINE         FAIR      58  55  90 E3        30.15R
STERLING*      FAIR      59  56  89 E5        30.18R
SAVANNA*       FAIR      59  56  89 NE3       30.17R
$$

ILZ003-004-008-010-011-017-018-241200-
NORTH CENTRAL ILLINOIS

CITY           SKY/WX    TMP DP  RH WIND       PRES   REMARKS
ROCKFORD       FAIR      58  52  80 CALM      30.20R
FREEPORT*      FAIR      57  53  86 SE5       30.20R
ROCHELLE*      FAIR      58  54  86 SE5       30.20R
DE KALB*       FAIR      60  54  82 SE6       30.20R
PERU*          FAIR      60  56  85 E3        30.19R
$$

ILZ005-006-012>014-019>023-241200-
NORTHEAST ILLINOIS

CITY           SKY/WX    TMP DP  RH WIND       PRES   REMARKS
CHICAGO-OHARE  FAIR      59  53  80 CALM      30.19R
CHICAGO-MIDWAY FAIR      60  54  80 CALM      30.19R
AURORA         FAIR      57  53  86 E3        30.19R
LANSING*       FAIR      53  53 100 CALM      30.20R FOG
JOLIET*        FAIR      57  56  98 CALM      30.20R
WAUKEGAN       FAIR      53  52  96 CALM      30.19R
DUPAGE AIRPORT FAIR      56  53  90 CALM      30.19R
KANKAKEE*      FAIR      59  54  82 CALM      30.20R
WHEELING       FAIR      57  54  89 CALM      30.20S
MORRIS*        FAIR      58  53  84 CALM      30.18S
NORTHERLY ISL    N/A     57  53  86 CALM        N/A
$$

LMZ740>746-241200-
SOUTHERN LAKE MICHIGAN

STATION/POSITION SKY/WX   TEMP    WIND        PRES    VSBY  WAVE
                          AIR SEA DIR/SP/G                  HT/PER
                          (F)     (DEG/KT/KT) (MB)    (MI)  (FT/S)
SOUTHERN BUOY              50 39  140/  6/  6 1022.6          0
WILMETTE HARBOR            55 53   40/  2/  2   N/A           0
HARRISON CRIB              61     170/  2/  2   N/A
BURNHAM HARBOR             58      CALM  /  1   N/A
CALUMET HARBOR             55        CALM     1021.7
BURNS HARBOR               65     170/  6/ 11 1022.7R
MICHIGAN CITY              62     130/ 10/ 11   N/A
MICHIGAN CITY 6N           60 56  170/  2/  2   N/A           0
ST. JOSEPH                 59 55  160/  6/  6 1022.9R         1
$$

ILZ025>027-034>036-040-047-049-050-058-095>099-241200-
WEST-CENTRAL ILLINOIS

CITY           SKY/WX    TMP DP  RH WIND       PRES   REMARKS
QUINCY         CLEAR     67  61  81 SE5       30.14R
GALESBURG*     FAIR      64  55  75 SE5       30.17S
MACOMB*        CLEAR     61  58  92 CALM      30.18R
JACKSONVILLE*  CLEAR     61  58  90 CALM      30.16R
PITTSFIELD*    CLEAR     64  64  99 CALM      30.17R FOG
$$

ILZ028>032-037-038-041>044-048-051>054-059>061-241200-
CENTRAL ILLINOIS

CITY           SKY/WX    TMP DP  RH WIND       PRES   REMARKS
PONTIAC        FAIR      59  57  93 E6        30.19R
BLOOMINGTON    FAIR      63  52  67 S6        30.19R
DECATUR        FAIR      58  52  80 E5        30.17R
PEORIA         FAIR      64  53  67 CALM      30.17R
LACON*         FAIR      57  56  94 CALM      30.17R
LINCOLN*       FAIR      63  54  72 CALM      30.17R
SPRINGFIELD    FAIR      63  57  81 CALM      30.16R
TAYLORVILLE    FAIR      64  58  82 SE5       30.17R
$$

ILZ033-039-045-046-055>057-062-063-241200-
EAST-CENTRAL ILLINOIS

CITY           SKY/WX    TMP DP  RH WIND       PRES   REMARKS
CHAMPAIGN      FAIR      61  54  77 E8        30.18R
DANVILLE*      FAIR      60  54  79 E3        30.17R
RANTOUL*       FAIR      64  55  74 CALM      30.19R
MATTOON        FAIR      63  57  81 SE5       30.16R
PARIS*         FAIR      58  55  89 E3        30.19R
$$

ILZ079-100>102-241200-
SOUTHWEST ILLINOIS

CITY           SKY/WX    TMP DP  RH WIND       PRES   REMARKS
BELLEVILLE     PTCLDY    63  61  93 CALM      30.13R
CAHOKIA*       CLEAR     63  61  93 CALM      30.14R
SPARTA*        CLEAR     64  64  99 SE3       30.16R
$$

ILZ064>066-069>071-074>076-080>082-084>086-088>090-092>094-241200-
SOUTH-CENTRAL ILLINOIS

CITY           SKY/WX    TMP DP  RH WIND       PRES   REMARKS
CARBONDALE     FAIR      62  61  96 CALM      30.14R FOG
CAIRO*         FAIR      66  65  97 CALM      30.12R FOG
EFFINGHAM*     FAIR      60  59  97 CALM      30.18S
MT. VERNON     FAIR      63  59  87 N3        30.16R
CENTRALIA*     CLEAR     63  61  93 E3        30.15R
SALEM*         FAIR      66  59  77 E3        30.15R
METROPOLIS*    FAIR      65  64  94 CALM      30.13R
$$

ILZ067-068-072-073-078-083-087-091-241200-
SOUTHEAST ILLINOIS

CITY           SKY/WX    TMP DP  RH WIND       PRES   REMARKS
LAWRENCEVILLE  FAIR      64  58  80 NE3       30.17R
FLORA*         FAIR      64  59  84 CALM      30.17R
FAIRFIELD*     FAIR      64  59  86 CALM      30.15R
HARRISBURG*    FAIR      66  62  87 CALM      30.15R
ROBINSON*      FAIR      57  57 100 CALM      30.19R
CARMI*         FAIR      61  59  92 CALM      30.15R
$$

ABBREVIATIONS USED IN REMARKS
   TC - TEMPERATURE IN CELSIUS
  WCI - WIND CHILL INDEX
   HX - HEAT INDEX
  VSB - VISIBILITY
$$





USA.gov is the U.S. government's official web portal to all federal, state and local government web resources and services.